pdstime, d1_rate
1986-01-24T10:09:14.000, 27.7
1986-01-24T10:10:50.000, 28.2
1986-01-24T10:12:26.000, 30.8
1986-01-24T10:14:02.000, 25.8
1986-01-24T10:18:50.000, 27.8
1986-01-24T10:23:38.000, 31.7
1986-01-24T10:25:14.000, 30.3
1986-01-24T10:26:50.000, 26.2
1986-01-24T10:28:26.000, 26
1986-01-24T10:30:02.000, 29.5
1986-01-24T10:31:38.000, 23.2
1986-01-24T10:33:14.000, 25
1986-01-24T10:34:50.000, 27.3
1986-01-24T10:36:26.000, 31.7
1986-01-24T10:38:02.000, 32.2
1986-01-24T10:39:38.000, 28.5
1986-01-24T10:41:14.000, 24.5
1986-01-24T10:42:50.000, 25.2
1986-01-24T10:44:26.000, 30.5
1986-01-24T10:46:02.000, 28.2
1986-01-24T10:47:38.000, 27.3
1986-01-24T10:49:14.000, 27.5
1986-01-24T10:50:50.000, 31
1986-01-24T10:52:26.000, 29.3
1986-01-24T10:54:02.000, 26.3
1986-01-24T10:55:38.000, 28
1986-01-24T10:57:14.000, 29.3
1986-01-24T10:58:50.000, 27.7
1986-01-24T11:03:38.000, 24.3
1986-01-24T11:05:14.000, 31.5
1986-01-24T11:06:50.000, 27.3
1986-01-24T11:08:26.000, 28.7
1986-01-24T11:10:02.000, 26.5
1986-01-24T11:11:38.000, 23.2
1986-01-24T11:13:14.000, 28.8
1986-01-24T11:14:50.000, 26.8
1986-01-24T11:16:26.000, 26.7
1986-01-24T11:18:02.000, 31.2
1986-01-24T11:19:38.000, 30.5
1986-01-24T11:21:14.000, 28.5
1986-01-24T11:22:50.000, 29.8
1986-01-24T11:24:26.000, 29.2
1986-01-24T11:26:02.000, 29.8
1986-01-24T11:27:38.000, 35
1986-01-24T11:29:14.000, 33.3
1986-01-24T11:30:50.000, 32.3
1986-01-24T11:32:26.000, 31.3
1986-01-24T11:34:02.000, 35.5
1986-01-24T11:35:38.000, 32.2
1986-01-24T11:37:14.000, 39
1986-01-24T11:38:50.000, 33.8
1986-01-24T11:40:26.000, 40.2
1986-01-24T11:42:02.000, 33.8
1986-01-24T11:46:50.000, 46.2
1986-01-24T11:56:26.000, 61.8
1986-01-24T12:04:26.000, 75.8
1986-01-24T12:06:02.000, 78.8
1986-01-24T12:07:38.000, 81.5
1986-01-24T12:14:02.000, 111
1986-01-24T12:15:38.000, 124.3
1986-01-24T12:17:14.000, 137
1986-01-24T12:18:50.000, 145.7
1986-01-24T12:20:26.000, 153
1986-01-24T12:22:02.000, 157.7
1986-01-24T12:23:38.000, 171.3
1986-01-24T12:25:14.000, 187.3
1986-01-24T12:30:02.000, 251.3
1986-01-24T12:31:38.000, 276.7
1986-01-24T12:33:14.000, 307.3
1986-01-24T12:34:50.000, 342.7
1986-01-24T12:36:26.000, 358.7
1986-01-24T12:38:02.000, 390.7
1986-01-24T12:39:38.000, 428
1986-01-24T12:41:14.000, 457.3
1986-01-24T12:42:50.000, 510.7
1986-01-24T12:44:26.000, 550.7
1986-01-24T12:46:02.000, 596
1986-01-24T12:47:38.000, 652
1986-01-24T12:49:14.000, 690.7
1986-01-24T12:50:50.000, 781.3
1986-01-24T12:52:26.000, 877.3
1986-01-24T12:54:02.000, 925.3
1986-01-24T12:55:38.000, 984
1986-01-24T12:57:14.000, 1069.3
1986-01-24T12:58:50.000, 1160
1986-01-24T13:00:26.000, 1245.3
1986-01-24T13:02:02.000, 1320
1986-01-24T13:03:38.000, 1413.3
1986-01-24T13:05:14.000, 1488
1986-01-24T13:06:50.000, 1530.7
1986-01-24T13:08:26.000, 1605.3
1986-01-24T13:10:02.000, 1701.3
1986-01-24T13:11:38.000, 1754.7
1986-01-24T13:13:14.000, 1861.3
1986-01-24T13:14:50.000, 1914.7
1986-01-24T13:16:26.000, 1989.3
1986-01-24T13:18:02.000, 2000
1986-01-24T13:19:38.000, 2032
1986-01-24T13:21:14.000, 2053.3
1986-01-24T13:22:50.000, 2138.7
1986-01-24T13:24:26.000, 2106.7
1986-01-24T13:26:02.000, 2128
1986-01-24T13:27:38.000, 2096
1986-01-24T13:29:14.000, 2085.3
1986-01-24T13:30:50.000, 2032
1986-01-24T13:32:26.000, 1957.3
1986-01-24T13:34:02.000, 1818.7
1986-01-24T13:35:38.000, 1648
1986-01-24T13:37:14.000, 1541.3
1986-01-24T13:38:50.000, 1456
1986-01-24T13:40:26.000, 1434.7
1986-01-24T13:42:02.000, 1445.3
1986-01-24T13:43:38.000, 1445.3
1986-01-24T13:50:02.000, 1605.3
1986-01-24T13:51:38.000, 1712
1986-01-24T13:53:14.000, 1840
1986-01-24T13:54:50.000, 2000
1986-01-24T13:56:26.000, 2234.7
1986-01-24T13:58:02.000, 2480
1986-01-24T13:59:38.000, 2784
1986-01-24T14:01:14.000, 3040
1986-01-24T14:02:50.000, 3402.7
1986-01-24T14:04:26.000, 3616
1986-01-24T14:06:02.000, 3850.7
1986-01-24T14:07:38.000, 4234.7
1986-01-24T14:17:14.000, 6592
1986-01-24T14:22:02.000, 7445.3
1986-01-24T14:23:38.000, 7658.7
1986-01-24T14:25:14.000, 7957.3
1986-01-24T14:26:50.000, 8128
1986-01-24T14:28:26.000, 8298.7
1986-01-24T14:30:02.000, 8512
1986-01-24T14:31:38.000, 8682.7
1986-01-24T14:33:14.000, 8725.3
1986-01-24T14:34:50.000, 8810.7
1986-01-24T14:38:02.000, 8981.3
1986-01-24T14:39:38.000, 9024
1986-01-24T14:46:02.000, 8597.3
1986-01-24T14:47:38.000, 7957.3
1986-01-24T14:49:14.000, 7189.3
1986-01-24T14:50:50.000, 6506.7
1986-01-24T14:52:26.000, 6378.7
1986-01-24T14:54:02.000, 6720
1986-01-24T14:55:38.000, 7018.7
1986-01-24T14:57:14.000, 6933.3
1986-01-24T15:02:02.000, 6592
1986-01-24T15:03:38.000, 6506.7
1986-01-24T15:05:14.000, 6336
1986-01-24T15:26:02.000, 3850.7
1986-01-24T15:27:38.000, 3616
1986-01-24T15:29:14.000, 3466.7
1986-01-24T15:30:50.000, 3338.7
1986-01-24T15:32:26.000, 3104
1986-01-24T15:34:02.000, 2954.7
1986-01-24T15:35:38.000, 2784
1986-01-24T15:43:38.000, 2170.7
1986-01-24T15:45:14.000, 2064
1986-01-24T15:46:50.000, 1872
1986-01-24T15:48:26.000, 1797.3
1986-01-24T15:50:02.000, 1722.7
1986-01-24T15:54:50.000, 1434.7
1986-01-24T15:56:26.000, 1392
1986-01-24T15:58:02.000, 1309.3
1986-01-24T16:07:38.000, 1117.3
1986-01-24T16:09:14.000, 1080
1986-01-24T16:10:50.000, 1090.7
1986-01-24T16:12:26.000, 1080
1986-01-24T16:14:02.000, 1085.3
1986-01-24T16:15:38.000, 1128
1986-01-24T16:17:14.000, 1165.3
1986-01-24T16:18:50.000, 1197.3
1986-01-24T16:20:26.000, 1218.7
1986-01-24T16:22:02.000, 1277.3
1986-01-24T16:23:38.000, 1357.3
1986-01-24T16:25:14.000, 1466.7
1986-01-24T16:26:50.000, 1562.7
1986-01-24T16:28:26.000, 1712
1986-01-24T16:30:02.000, 1840
1986-01-24T16:31:38.000, 2010.7
1986-01-24T16:33:14.000, 2149.3
1986-01-24T16:34:50.000, 2373.3
1986-01-24T16:39:38.000, 3317.3
1986-01-24T16:41:14.000, 3808
1986-01-24T16:42:50.000, 4597.3
1986-01-24T16:44:26.000, 5322.7
1986-01-24T16:46:02.000, 6122.7
1986-01-24T16:47:38.000, 6890.7
1986-01-24T16:49:14.000, 7744
1986-01-24T16:50:50.000, 8554.7
1986-01-24T16:52:26.000, 9194.7
1986-01-24T16:54:02.000, 10005.3
1986-01-24T16:57:14.000, 11306.7
1986-01-24T16:58:50.000, 11818.7
1986-01-24T17:00:26.000, 12416
1986-01-24T17:02:02.000, 13098.7
1986-01-24T17:03:38.000, 13525.3
1986-01-24T17:08:26.000, 15061.3
1986-01-24T17:10:02.000, 15317.3
1986-01-24T17:11:38.000, 15573.3
1986-01-24T17:13:14.000, 15914.7
1986-01-24T17:14:50.000, 16085.3
1986-01-24T17:19:38.000, 16426.7
1986-01-24T17:21:14.000, 16341.3
1986-01-24T17:22:50.000, 16341.3
1986-01-24T17:24:26.000, 16256
1986-01-24T17:26:02.000, 16000
1986-01-24T17:27:38.000, 15744
1986-01-24T17:29:14.000, 15488
1986-01-24T17:34:02.000, 14464
1986-01-24T17:35:38.000, 14293.3
1986-01-24T17:37:14.000, 14037.3
1986-01-24T17:38:50.000, 13696
1986-01-24T17:40:26.000, 13525.3
1986-01-24T17:42:02.000, 13354.7
1986-01-24T17:43:38.000, 13354.7
1986-01-24T17:45:14.000, 13696
1986-01-24T17:46:50.000, 14208
1986-01-24T17:48:26.000, 15317.3
1986-01-24T17:50:02.000, 16853.3
1986-01-24T17:51:38.000, 19072
1986-01-24T17:53:14.000, 21930.7
1986-01-24T17:54:50.000, 25002.7
1986-01-24T17:56:26.000, 28074.7
1986-01-24T17:59:38.000, 34901.3
1986-01-24T18:01:14.000, 38314.7
1986-01-24T18:02:50.000, 41386.7
1986-01-24T18:04:26.000, 46250.7
1986-01-24T18:06:02.000, 48981.3
1986-01-24T18:10:50.000, 50005.3
1986-01-24T18:12:26.000, 50005.3
1986-01-24T18:14:02.000, 49664
1986-01-24T18:15:38.000, 49664
1986-01-24T18:17:14.000, 49322.7
1986-01-24T18:18:50.000, 48981.3
1986-01-24T18:20:26.000, 48981.3
1986-01-24T18:22:02.000, 48640
1986-01-24T18:28:26.000, 48298.7
1986-01-24T18:30:02.000, 47957.3
1986-01-24T18:31:38.000, 47957.3
1986-01-24T18:33:14.000, 47957.3
1986-01-24T18:34:50.000, 47957.3
1986-01-24T18:36:26.000, 48298.7
1986-01-24T18:38:02.000, 47957.3
1986-01-24T18:39:38.000, 48298.7
1986-01-24T18:41:14.000, 48298.7
1986-01-24T18:42:50.000, 48298.7
1986-01-24T18:44:26.000, 48298.7
1986-01-24T18:46:02.000, 48640
1986-01-24T18:47:38.000, 48981.3
1986-01-24T18:49:14.000, 48640
1986-01-24T18:50:50.000, 48981.3
1986-01-24T18:52:26.000, 49322.7
1986-01-24T18:54:02.000, 49664
1986-01-24T19:02:02.000, 49322.7
1986-01-24T19:03:38.000, 47616
1986-01-24T19:05:14.000, 44885.3
1986-01-24T19:06:50.000, 41898.7
1986-01-24T19:08:26.000, 39338.7
1986-01-24T19:10:02.000, 36778.7
1986-01-24T19:11:38.000, 34560
1986-01-24T19:16:26.000, 27392
1986-01-24T19:18:02.000, 25685.3
1986-01-24T19:22:50.000, 27392
1986-01-24T19:24:26.000, 28928
1986-01-24T19:26:02.000, 30293.3
1986-01-24T19:27:38.000, 31488
1986-01-24T19:29:14.000, 32682.7
1986-01-24T19:30:50.000, 33877.3
1986-01-24T19:32:26.000, 34901.3
1986-01-24T19:34:02.000, 35754.7
1986-01-24T19:35:38.000, 36437.3
1986-01-24T19:37:14.000, 37120
1986-01-24T19:38:50.000, 37632
1986-01-24T19:40:26.000, 38144
1986-01-24T19:42:02.000, 38485.3
1986-01-24T19:43:38.000, 38826.7
1986-01-24T19:51:38.000, 39338.7
1986-01-24T19:53:14.000, 39338.7
1986-01-24T19:54:50.000, 38997.3
1986-01-24T19:56:26.000, 38997.3
1986-01-24T19:58:02.000, 38656
1986-01-24T19:59:38.000, 38314.7
1986-01-24T20:01:14.000, 37802.7
1986-01-24T20:02:50.000, 37461.3
1986-01-24T20:04:26.000, 36778.7
1986-01-24T20:06:02.000, 36096
1986-01-24T20:07:38.000, 35242.7
1986-01-24T20:09:14.000, 34389.3
1986-01-24T20:10:50.000, 33194.7
1986-01-24T20:12:26.000, 31658.7
1986-01-24T20:14:02.000, 30293.3
1986-01-24T20:15:38.000, 28416
1986-01-24T20:17:14.000, 26368
1986-01-24T20:18:50.000, 23808
1986-01-24T20:20:26.000, 21034.7
1986-01-24T20:22:02.000, 17792
1986-01-24T20:23:38.000, 14122.7
1986-01-24T20:25:14.000, 10133.3
1986-01-24T20:26:50.000, 6762.7
1986-01-24T20:28:26.000, 4789.3
1986-01-24T20:30:02.000, 3466.7
1986-01-24T20:31:38.000, 2741.3
1986-01-24T20:33:14.000, 2362.7
1986-01-24T20:38:02.000, 2714.7
1986-01-24T20:39:38.000, 3040
1986-01-24T20:41:14.000, 3424
1986-01-24T20:42:50.000, 3808
1986-01-24T20:44:26.000, 4149.3
1986-01-24T20:46:02.000, 4554.7
1986-01-24T20:47:38.000, 4810.7
1986-01-24T20:49:14.000, 5024
1986-01-24T20:50:50.000, 5216
1986-01-24T20:52:26.000, 5344
1986-01-24T20:54:02.000, 5408
1986-01-24T20:55:38.000, 5450.7
1986-01-24T20:57:14.000, 5344
1986-01-24T20:58:50.000, 5258.7
1986-01-24T21:00:26.000, 5173.3
1986-01-24T21:02:02.000, 4960
1986-01-24T21:03:38.000, 4853.3
1986-01-24T21:05:14.000, 4512
1986-01-24T21:06:50.000, 4277.3
1986-01-24T21:08:26.000, 3957.3
1986-01-24T21:10:02.000, 3616
1986-01-24T21:11:38.000, 3168
1986-01-24T21:13:14.000, 2826.7
1986-01-24T21:14:50.000, 2341.3
1986-01-24T21:16:26.000, 2096
1986-01-24T21:18:02.000, 1658.7
1986-01-24T21:19:38.000, 1314.7
1986-01-24T21:21:14.000, 1101.3
1986-01-24T21:22:50.000, 850.7
1986-01-24T21:24:26.000, 654.7
1986-01-24T21:26:02.000, 500
1986-01-24T21:27:38.000, 470.7
1986-01-24T21:29:14.000, 470.7
1986-01-24T21:30:50.000, 438.7
1986-01-24T21:32:26.000, 436
1986-01-24T21:34:02.000, 436
1986-01-24T21:35:38.000, 430.7
1986-01-24T21:37:14.000, 414.7
1986-01-24T21:38:50.000, 398.7
1986-01-24T21:40:26.000, 396
1986-01-24T21:42:02.000, 372
1986-01-24T21:43:38.000, 377.3
1986-01-24T21:45:14.000, 377.3
1986-01-24T21:46:50.000, 348
1986-01-24T21:48:26.000, 342.7
1986-01-24T21:50:02.000, 300.7
1986-01-24T21:51:38.000, 299.3
1986-01-24T21:53:14.000, 272.7
1986-01-24T21:54:50.000, 259.3
1986-01-24T21:56:26.000, 239.3
1986-01-24T21:58:02.000, 222
1986-01-24T21:59:38.000, 200.7
1986-01-24T22:01:14.000, 184.7
1986-01-24T22:02:50.000, 164.3
1986-01-24T22:04:26.000, 153.7
1986-01-24T22:06:02.000, 152.3
1986-01-24T22:07:38.000, 137.7
1986-01-24T22:09:14.000, 121.7
1986-01-24T22:14:02.000, 89
1986-01-24T22:15:38.000, 81.2
1986-01-24T22:17:14.000, 77.8
1986-01-24T22:18:50.000, 81.8
1986-01-24T22:20:26.000, 63.2
1986-01-24T22:22:02.000, 61.2
1986-01-24T22:23:38.000, 51.2
1986-01-24T22:25:14.000, 51.8
1986-01-24T22:26:50.000, 41
1986-01-24T22:28:26.000, 35.3
1986-01-24T22:30:02.000, 33.5
1986-01-24T22:31:38.000, 30
1986-01-24T22:33:14.000, 28
1986-01-24T22:34:50.000, 29.5
1986-01-24T22:36:26.000, 29.5
1986-01-24T22:38:02.000, 28.8
1986-01-24T22:39:38.000, 27.8
1986-01-24T22:41:14.000, 27.8
1986-01-24T22:42:50.000, 22.7
1986-01-24T22:44:26.000, 26.7
1986-01-24T22:46:02.000, 30.2
1986-01-24T22:47:38.000, 23.7
1986-01-24T22:49:14.000, 30.2
1986-01-24T22:50:50.000, 28.5
1986-01-24T22:52:26.000, 30.8
1986-01-24T22:54:02.000, 29.2
1986-01-24T22:55:38.000, 27.3
1986-01-24T22:57:14.000, 26.5
1986-01-24T22:58:50.000, 26.8
1986-01-24T23:00:26.000, 27
1986-01-24T23:02:02.000, 28.7
1986-01-24T23:03:38.000, 28.8
1986-01-24T23:05:14.000, 26
